| time (UTC) | temp F | wind direction | speed MPH | gust MPH | rain 1hr in | rain 24hr in | rain mn in | humidity % | barometer mb |
| 20260504191607 | 54 | 28 | 0.0 | 1.0 | 0.00 | 0.07 | 0.07 | 92 | 1011.6 |
| 20260504191105 | 54 | 28 | 0.0 | 1.0 | 0.00 | 0.07 | 0.07 | 92 | 1011.6 |
| 20260504190605 | 54 | 28 | 0.0 | 2.0 | 0.00 | 0.07 | 0.07 | 92 | 1011.6 |
| 20260504190105 | 54 | 28 | 0.0 | 2.0 | 0.00 | 0.07 | 0.07 | 92 | 1011.6 |
| 20260504185602 | 54 | 28 | 1.0 | 2.0 | 0.00 | 0.07 | 0.07 | 92 | 1011.5 |
| 20260504185102 | 54 | 28 | 1.0 | 2.0 | 0.00 | 0.07 | 0.07 | 92 | 1011.5 |
| 20260504184602 | 54 | 28 | 1.0 | 2.0 | 0.00 | 0.07 | 0.07 | 92 | 1011.5 |
| 20260504184103 | 54 | 28 | 1.0 | 2.0 | 0.01 | 0.07 | 0.07 | 92 | 1011.5 |
| 20260504183602 | 54 | 29 | 1.0 | 3.0 | 0.01 | 0.07 | 0.07 | 92 | 1011.6 |
| 20260504182603 | 54 | 39 | 1.0 | 2.0 | 0.01 | 0.07 | 0.07 | 92 | 1011.6 |
| 20260504182104 | 54 | 40 | 1.0 | 2.0 | 0.01 | 0.07 | 0.07 | 92 | 1011.6 |
| 20260504181559 | 54 | 40 | 1.0 | 2.0 | 0.01 | 0.07 | 0.07 | 92 | 1011.5 |
| 20260504180547 | 54 | 40 | 1.0 | 2.0 | 0.01 | 0.07 | 0.07 | 92 | 1011.6 |
| 20260504180040 | 54 | 40 | 1.0 | 3.0 | 0.01 | 0.07 | 0.07 | 92 | 1011.6 |
| 20260504175539 | 54 | 40 | 1.0 | 3.0 | 0.01 | 0.07 | 0.07 | 92 | 1011.6 |
| 20260504175039 | 54 | 36 | 1.0 | 2.0 | 0.01 | 0.07 | 0.07 | 92 | 1011.7 |
| 20260504174539 | 54 | 26 | 0.0 | 2.0 | 0.00 | 0.06 | 0.06 | 92 | 1011.8 |
| 20260504174039 | 54 | 26 | 1.0 | 2.0 | 0.00 | 0.06 | 0.06 | 92 | 1011.9 |
| 20260504173539 | 54 | 26 | 1.0 | 2.0 | 0.00 | 0.06 | 0.06 | 92 | 1011.8 |
| 20260504173039 | 54 | 26 | 1.0 | 2.0 | 0.00 | 0.06 | 0.06 | 92 | 1011.8 |
| 20260504172539 | 54 | 26 | 1.0 | 3.0 | 0.01 | 0.06 | 0.06 | 92 | 1011.8 |
| 20260504171037 | 54 | 23 | 1.0 | 2.0 | 0.01 | 0.06 | 0.06 | 92 | 1011.9 |
| 20260504170549 | 54 | 23 | 1.0 | 3.0 | 0.01 | 0.06 | 0.06 | 92 | 1011.9 |
| 20260504150502 | 56 | 5 | 0.0 | 1.0 | 0.01 | 0.06 | 0.06 | 90 | 1012.4 |
| 20260504140933 | 56 | 232 | 0.0 | 2.0 | 0.04 | 0.06 | 0.05 | 89 | 1012.8 |
| 20260504140430 | 56 | 232 | 0.0 | 1.0 | 0.04 | 0.06 | 0.05 | 89 | 1012.8 |
| 20260504130428 | 59 | 211 | 0.0 | 2.0 | 0.00 | 0.04 | 0.01 | 84 | 1013.1 |
| 20260504100401 | 60 | 155 | 1.0 | 3.0 | 0.00 | 0.03 | 0.00 | 78 | 1013.6 |
| 20260504081904 | 59 | 180 | 1.0 | 4.0 | 0.00 | 0.03 | 0.00 | 79 | 1013.3 |
| 20260504081402 | 59 | 163 | 1.0 | 4.0 | 0.00 | 0.03 | 0.00 | 80 | 1013.2 |
| 20260504080901 | 59 | 167 | 1.0 | 4.0 | 0.00 | 0.03 | 0.00 | 80 | 1013.2 |
| 20260504080402 | 58 | 171 | 1.0 | 2.0 | 0.00 | 0.03 | 0.00 | 81 | 1013.1 |
| 20260504050346 | 47 | 119 | 0.0 | 0.0 | 0.00 | 0.03 | 0.00 | 93 | 1012.7 |
| 20260504045844 | 47 | 119 | 0.0 | 0.0 | 0.00 | 0.03 | 0.00 | 93 | 1012.7 |
| 20260504045344 | 46 | 119 | 0.0 | 0.0 | 0.00 | 0.03 | 0.00 | 93 | 1012.7 |
| 20260504044344 | 45 | 119 | 0.0 | 1.0 | 0.00 | 0.03 | 0.00 | 93 | 1012.6 |
| 20260504043841 | 44 | 119 | 0.0 | 1.0 | 0.00 | 0.03 | 0.00 | 92 | 1012.6 |
| 20260504043340 | 44 | 118 | 0.0 | 1.0 | 0.00 | 0.03 | 0.00 | 93 | 1012.6 |
| 20260504042840 | 44 | 118 | 0.0 | 2.0 | 0.00 | 0.03 | 0.00 | 92 | 1012.5 |
| 20260504042342 | 44 | 119 | 0.0 | 2.0 | 0.00 | 0.03 | 0.00 | 92 | 1012.5 |
| 20260504041340 | 44 | 118 | 0.0 | 0.0 | 0.00 | 0.03 | 0.00 | 92 | 1012.6 |
| 20260504040838 | 44 | 119 | 0.0 | 1.0 | 0.00 | 0.03 | 0.00 | 92 | 1012.5 |
| 20260504040341 | 44 | 118 | 0.0 | 1.0 | 0.00 | 0.03 | 0.00 | 92 | 1012.6 |
| 20260504035834 | 44 | 118 | 0.0 | 1.0 | 0.00 | 0.03 | 0.00 | 92 | 1012.6 |
| 20260504035334 | 43 | 118 | 0.0 | 1.0 | 0.00 | 0.03 | 0.00 | 92 | 1012.6 |
| 20260504034834 | 43 | 119 | 0.0 | 1.0 | 0.00 | 0.03 | 0.00 | 92 | 1012.5 |
| 20260504034333 | 43 | 118 | 0.0 | 2.0 | 0.00 | 0.03 | 0.00 | 92 | 1012.5 |
| 20260504033834 | 43 | 118 | 0.0 | 2.0 | 0.00 | 0.03 | 0.00 | 92 | 1012.5 |
| 20260504033334 | 43 | 118 | 0.0 | 2.0 | 0.00 | 0.03 | 0.00 | 92 | 1012.5 |
| 20260504032333 | 43 | 118 | 0.0 | 0.0 | 0.00 | 0.03 | 0.00 | 92 | 1012.5 |
| 20260504031333 | 43 | 118 | 0.0 | 1.0 | 0.00 | 0.03 | 0.00 | 92 | 1012.5 |
| 20260504030834 | 43 | 118 | 0.0 | 1.0 | 0.00 | 0.03 | 0.00 | 92 | 1012.5 |
| 20260504030336 | 43 | 119 | 0.0 | 1.0 | 0.00 | 0.03 | 0.00 | 92 | 1012.5 |
| 20260504025834 | 43 | 118 | 0.0 | 1.0 | 0.00 | 0.03 | 0.00 | 92 | 1012.3 |
| 20260504025335 | 43 | 118 | 0.0 | 2.0 | 0.00 | 0.03 | 0.00 | 92 | 1012.2 |
| 20260504024833 | 43 | 118 | 0.0 | 2.0 | 0.00 | 0.03 | 0.00 | 92 | 1012.2 |
| 20260504023333 | 44 | 118 | 0.0 | 1.0 | 0.00 | 0.03 | 0.00 | 92 | 1012.4 |
| 20260504022832 | 44 | 118 | 0.0 | 0.0 | 0.00 | 0.03 | 0.00 | 92 | 1012.5 |
| 20260504022329 | 44 | 118 | 0.0 | 0.0 | 0.00 | 0.03 | 0.00 | 92 | 1012.5 |
| 20260504021823 | 44 | 118 | 0.0 | 0.0 | 0.00 | 0.03 | 0.00 | 92 | 1012.6 |
| 20260504021317 | 44 | 118 | 0.0 | 0.0 | 0.00 | 0.03 | 0.00 | 92 | 1012.5 |
| 20260504020817 | 44 | 118 | 0.0 | 0.0 | 0.00 | 0.03 | 0.00 | 92 | 1012.6 |
| 20260504020316 | 44 | 119 | 0.0 | 0.0 | 0.00 | 0.03 | 0.00 | 92 | 1012.6 |
| 20260504015813 | 44 | 118 | 0.0 | 1.0 | 0.00 | 0.03 | 0.00 | 92 | 1012.6 |
| 20260504015312 | 44 | 119 | 0.0 | 1.0 | 0.00 | 0.03 | 0.00 | 92 | 1012.6 |
| 20260504014809 | 44 | 118 | 0.0 | 0.0 | 0.00 | 0.03 | 0.00 | 92 | 1012.7 |
| 20260504014307 | 45 | 119 | 0.0 | 0.0 | 0.00 | 0.03 | 0.00 | 92 | 1012.8 |
| 20260504013805 | 45 | 118 | 0.0 | 0.0 | 0.00 | 0.03 | 0.00 | 92 | 1012.8 |
| 20260504013304 | 45 | 119 | 0.0 | 0.0 | 0.00 | 0.03 | 0.00 | 92 | 1012.8 |
| 20260504012802 | 45 | 118 | 0.0 | 0.0 | 0.00 | 0.03 | 0.00 | 92 | 1012.8 |
| 20260504012304 | 45 | 119 | 0.0 | 0.0 | 0.00 | 0.03 | 0.00 | 92 | 1012.8 |
| 20260504011802 | 45 | 118 | 0.0 | 0.0 | 0.00 | 0.03 | 0.00 | 92 | 1012.8 |
| 20260504011305 | 45 | 118 | 0.0 | 0.0 | 0.00 | 0.03 | 0.00 | 92 | 1012.8 |
| 20260504010304 | 45 | 118 | 0.0 | 0.0 | 0.00 | 0.03 | 0.00 | 92 | 1012.8 |
| 20260504005301 | 46 | 118 | 0.0 | 1.0 | 0.00 | 0.03 | 0.00 | 92 | 1012.7 |
| 20260504004802 | 46 | 118 | 0.0 | 1.0 | 0.00 | 0.03 | 0.00 | 92 | 1012.7 |
| 20260504003756 | 46 | 118 | 0.0 | 0.0 | 0.00 | 0.03 | 0.00 | 92 | 1012.7 |
| 20260504003254 | 46 | 118 | 0.0 | 0.0 | 0.00 | 0.03 | 0.00 | 92 | 1012.7 |
| 20260504002239 | 46 | 119 | 0.0 | 0.0 | 0.00 | 0.03 | 0.00 | 91 | 1012.7 |
| 20260504001734 | 46 | 119 | 0.0 | 0.0 | 0.00 | 0.03 | 0.00 | 91 | 1012.7 |
| 20260504001227 | 46 | 118 | 0.0 | 1.0 | 0.00 | 0.03 | 0.00 | 91 | 1012.6 |
| 20260504000727 | 46 | 118 | 0.0 | 1.0 | 0.00 | 0.03 | 0.00 | 91 | 1012.6 |
| 20260504000226 | 46 | 118 | 0.0 | 0.0 | 0.00 | 0.03 | 0.00 | 91 | 1012.6 |
| 20260503235725 | 46 | 118 | 0.0 | 1.0 | 0.00 | 0.03 | 0.00 | 91 | 1012.5 |
| 20260503235225 | 46 | 119 | 0.0 | 1.0 | 0.00 | 0.03 | 0.00 | 91 | 1012.5 |
| 20260503234723 | 46 | 118 | 0.0 | 1.0 | 0.00 | 0.03 | 0.00 | 91 | 1012.5 |
| 20260503234221 | 46 | 118 | 0.0 | 1.0 | 0.00 | 0.03 | 0.00 | 91 | 1012.6 |
| 20260503233721 | 46 | 118 | 0.0 | 0.0 | 0.00 | 0.03 | 0.00 | 91 | 1012.5 |
| 20260503233221 | 46 | 118 | 0.0 | 0.0 | 0.00 | 0.03 | 0.00 | 91 | 1012.4 |
| 20260503232719 | 47 | 118 | 0.0 | 1.0 | 0.00 | 0.03 | 0.00 | 91 | 1012.4 |
| 20260503232217 | 47 | 118 | 0.0 | 1.0 | 0.00 | 0.03 | 0.00 | 91 | 1012.4 |
| 20260503231715 | 47 | 119 | 0.0 | 1.0 | 0.00 | 0.03 | 0.00 | 91 | 1012.5 |
| 20260503230705 | 47 | 118 | 0.0 | 1.0 | 0.00 | 0.03 | 0.00 | 91 | 1012.6 |
| 20260503230205 | 47 | 118 | 0.0 | 1.0 | 0.00 | 0.03 | 0.00 | 91 | 1012.6 |
| 20260503225704 | 47 | 118 | 0.0 | 0.0 | 0.00 | 0.03 | 0.00 | 91 | 1012.7 |
| 20260503225205 | 47 | 118 | 0.0 | 0.0 | 0.00 | 0.03 | 0.00 | 90 | 1012.7 |
| 20260503224704 | 47 | 119 | 0.0 | 0.0 | 0.00 | 0.03 | 0.00 | 90 | 1012.7 |
| 20260503224205 | 47 | 119 | 0.0 | 0.0 | 0.00 | 0.03 | 0.00 | 90 | 1012.8 |
| 20260503223703 | 47 | 118 | 0.0 | 0.0 | 0.00 | 0.03 | 0.00 | 90 | 1012.8 |
| 20260503222703 | 47 | 118 | 0.0 | 0.0 | 0.00 | 0.03 | 0.00 | 90 | 1012.7 |
| 20260503222205 | 47 | 118 | 0.0 | 0.0 | 0.00 | 0.03 | 0.00 | 90 | 1012.7 |
| 20260503221703 | 47 | 118 | 0.0 | 0.0 | 0.00 | 0.03 | 0.00 | 90 | 1012.7 |
| 20260503220703 | 48 | 118 | 0.0 | 0.0 | 0.00 | 0.03 | 0.00 | 89 | 1012.7 |
| 20260503220204 | 48 | 118 | 0.0 | 0.0 | 0.00 | 0.03 | 0.00 | 89 | 1012.7 |
| 20260503215703 | 48 | 118 | 0.0 | 0.0 | 0.00 | 0.03 | 0.03 | 89 | 1012.7 |
| 20260503215204 | 48 | 118 | 0.0 | 0.0 | 0.00 | 0.03 | 0.03 | 89 | 1012.7 |
| 20260503214204 | 49 | 118 | 0.0 | 1.0 | 0.00 | 0.03 | 0.03 | 89 | 1012.7 |
| 20260503213702 | 49 | 118 | 0.0 | 1.0 | 0.00 | 0.03 | 0.03 | 89 | 1012.7 |
| 20260503213204 | 49 | 118 | 0.0 | 1.0 | 0.00 | 0.03 | 0.03 | 89 | 1012.7 |
| 20260503212702 | 49 | 118 | 0.0 | 1.0 | 0.00 | 0.03 | 0.03 | 89 | 1012.6 |
| 20260503212200 | 49 | 118 | 0.0 | 2.0 | 0.00 | 0.03 | 0.03 | 89 | 1012.5 |
| 20260503211655 | 49 | 118 | 1.0 | 2.0 | 0.00 | 0.03 | 0.03 | 89 | 1012.5 |
| 20260503210654 | 49 | 118 | 1.0 | 2.0 | 0.00 | 0.03 | 0.03 | 88 | 1012.6 |
| 20260503205151 | 50 | 119 | 0.0 | 2.0 | 0.00 | 0.03 | 0.03 | 88 | 1012.6 |
| 20260503204651 | 50 | 119 | 0.0 | 2.0 | 0.00 | 0.03 | 0.03 | 87 | 1012.6 |
| 20260503204152 | 50 | 119 | 0.0 | 2.0 | 0.00 | 0.03 | 0.03 | 87 | 1012.6 |
| 20260503203149 | 51 | 119 | 0.0 | 1.0 | 0.00 | 0.03 | 0.03 | 86 | 1012.7 |
| 20260503202649 | 51 | 119 | 0.0 | 1.0 | 0.00 | 0.03 | 0.03 | 86 | 1012.7 |
| 20260503201649 | 52 | 119 | 0.0 | 1.0 | 0.00 | 0.03 | 0.03 | 85 | 1012.7 |
| 20260503201153 | 53 | 119 | 0.0 | 1.0 | 0.00 | 0.03 | 0.03 | 84 | 1012.8 |
| 20260503200646 | 53 | 119 | 1.0 | 2.0 | 0.00 | 0.03 | 0.03 | 84 | 1012.7 |
| 20260503195645 | 54 | 119 | 0.0 | 2.0 | 0.00 | 0.03 | 0.03 | 84 | 1012.7 |
| 20260503194646 | 54 | 119 | 1.0 | 3.0 | 0.00 | 0.03 | 0.03 | 84 | 1012.6 |
| 20260503194146 | 55 | 136 | 1.0 | 2.0 | 0.00 | 0.03 | 0.03 | 84 | 1012.6 |
| 20260503193646 | 55 | 136 | 1.0 | 2.0 | 0.00 | 0.03 | 0.03 | 84 | 1012.6 |
| 20260503193145 | 55 | 182 | 1.0 | 2.0 | 0.00 | 0.03 | 0.03 | 84 | 1012.6 |
| 20260503192645 | 55 | 182 | 0.0 | 2.0 | 0.00 | 0.03 | 0.03 | 83 | 1012.6 |
| 20260503192142 | 56 | 182 | 0.0 | 2.0 | 0.00 | 0.03 | 0.03 | 83 | 1012.6 |